Weather History for KRCA - January, 2014

Change the Weather History Date:

Wednesday, January 15, 2014

  Actual Average Record
Temperature  
Mean Temperature 36 °F -  
Max Temperature 49 °F 35 °F 59 °F (2000)
Min Temperature 22 °F 14 °F -2 °F (2009)
Degree Days  
Heating Degree Days 30    
Moisture  
Dew Point 25 °F    
Average Humidity 62    
Maximum Humidity 93    
Minimum Humidity 41    
Precipitation  
Precipitation 0.00 in - - ()
Sea Level Pressure  
Sea Level Pressure 29.94 in    
Wind  
Wind Speed 20 mph (NW)    
Max Wind Speed 48 mph    
Max Gust Speed 64 mph    
Visibility 9 miles    
Events Rain , Snow    
Averages and records for this station are not official NWS values.
T = Trace of Precipitation, MM = Missing Value Source: NWS Daily Summary

Daily Weather History Graph

Daily Weather History Graph

Search for Another Location

Airport or City:

Trip Planner

Search our weather history database for the weather conditions in past years. The results will help you decide how hot, cold, wet, or windy it might be!

Date:

Astronomy

Jan. 15, 2014 Rise Set
Actual Time 7:24 AM MST 4:39 PM MST
Civil Twilight 6:52 AM MST 5:12 PM MST
Nautical Twilight 6:16 AM MST 5:47 PM MST
Astronomical Twilight 5:41 AM MST 6:22 PM MST
Moon 4:41 PM MST (1/15) 6:39 AM MST (1/15)
Length of Visible Light 10h 19m
Length of Day
9h 15m
Full, 100% of the Moon is Illuminated
Jan 15
Full
Jan 15
Full
Jan 23
Last Quarter
Jan 30
New
Feb 6
First Quarter

Hourly Weather History & Observations

Time (MST) Temp. Windchill Dew Point Humidity Pressure Visibility Wind Dir Wind Speed Gust Speed Precip Events Conditions
12:58 AM 29.3 °F 20.8 °F 17.8 °F 62% 30.17 in 10.0 mi SSW 9.2 mph - N/A   Overcast
1:58 AM 31.5 °F 20.5 °F 18.3 °F 58% 30.13 in 10.0 mi South 16.1 mph 23.0 mph N/A   Overcast
2:58 AM 32.2 °F 26.7 °F 18.7 °F 58% 30.12 in 10.0 mi SSW 5.8 mph - N/A   Overcast
3:58 AM 30.4 °F 26.9 °F 20.7 °F 67% 30.09 in 10.0 mi West 3.5 mph - N/A   Scattered Clouds
4:58 AM 25.5 °F 19.9 °F 17.2 °F 71% 30.08 in 10.0 mi West 4.6 mph - N/A   Clear
5:58 AM 22.3 °F 17.6 °F 16.9 °F 80% 30.04 in 10.0 mi WNW 3.5 mph - N/A   Clear
6:58 AM 26.8 °F 21.4 °F 20.5 °F 77% 30.00 in 10.0 mi WSW 4.6 mph - N/A   Clear
7:58 AM 31.8 °F 25.4 °F 22.5 °F 68% 29.98 in 10.0 mi SW 6.9 mph - N/A   Partly Cloudy
8:58 AM 34.7 °F - 24.1 °F 65% 29.96 in 10.0 mi East 2.3 mph - N/A   Overcast
9:58 AM 38.1 °F 32.3 °F 27.1 °F 65% 29.94 in 10.0 mi South 8.1 mph - N/A   Overcast
10:58 AM 44.1 °F 34.8 °F 25.9 °F 49% 29.90 in 10.0 mi NW 25.3 mph 31.1 mph N/A   Overcast
11:58 AM 47.3 °F - 25.0 °F 42% 29.86 in 10.0 mi NW 39.1 mph 51.8 mph N/A   Overcast
12:58 PM 46.9 °F - 26.4 °F 45% 29.83 in 10.0 mi NW 33.4 mph 43.7 mph N/A   Overcast
1:58 PM 48.0 °F - 29.3 °F 48% 29.83 in 10.0 mi NW 27.6 mph - N/A   Mostly Cloudy
2:58 PM 49.6 °F - 27.0 °F 41% 29.85 in 10.0 mi NW 23.0 mph 29.9 mph N/A   Clear
3:58 PM 47.8 °F - 25.7 °F 42% 29.86 in 10.0 mi NW 21.9 mph - N/A   Clear
4:58 PM 45.7 °F 37.6 °F 25.0 °F 44% 29.90 in 10.0 mi NW 21.9 mph 28.8 mph N/A   Clear
5:58 PM 45.7 °F 38.3 °F 24.8 °F 44% 29.92 in 10.0 mi NW 18.4 mph - N/A   Clear
6:58 PM 46.4 °F 36.9 °F 25.2 °F 43% 29.92 in 10.0 mi North 32.2 mph 43.7 mph N/A   Overcast
7:55 PM 41.0 °F 31.9 °F 26.6 °F 57% 29.89 in 10.0 mi NNW 19.6 mph - N/A Rain Light Rain
7:58 PM 41.0 °F 31.9 °F 26.6 °F 57% 29.96 in 10.0 mi NNW 19.6 mph - N/A Rain Light Rain
8:02 PM 41.0 °F 32.2 °F 28.4 °F 61% 29.89 in 10.0 mi NNW 18.4 mph - N/A   Overcast
8:19 PM 39.2 °F 27.4 °F 26.6 °F 61% 29.89 in 10.0 mi NW 29.9 mph 43.7 mph N/A Rain Light Rain
8:36 PM 41.0 °F 30.5 °F 26.6 °F 57% 29.90 in 10.0 mi NW 26.5 mph 36.8 mph N/A   Overcast
8:58 PM 39.7 °F 28.1 °F 24.6 °F 55% 29.98 in 10.0 mi NNW 29.9 mph 39.1 mph 0.00 in   Overcast
9:03 PM 39.2 °F 26.8 °F 23.0 °F 52% 29.92 in 10.0 mi NNW 33.4 mph 43.7 mph N/A Rain Light Rain
9:11 PM 39.2 °F 26.1 °F 24.8 °F 56% 29.92 in 8.0 mi NNW 38.0 mph 44.9 mph N/A Rain Light Rain
9:36 PM 35.6 °F 20.5 °F 26.6 °F 70% 29.93 in 6.0 mi NNW 42.6 mph 50.6 mph N/A Snow Light Snow
9:41 PM 35.6 °F 21.1 °F 28.4 °F 75% 29.93 in 3.0 mi NW 38.0 mph 50.6 mph N/A Snow Light Snow
9:46 PM 35.6 °F 20.3 °F 28.4 °F 75% 29.94 in 2.0 mi NW 43.7 mph 52.9 mph N/A Snow Light Snow
9:54 PM 33.8 °F 17.9 °F 30.2 °F 87% 29.92 in 4.0 mi NW 42.6 mph 50.6 mph N/A Snow Light Snow
10:03 PM 32.0 °F 16.7 °F 30.2 °F 93% 29.94 in 6.0 mi WNW 34.5 mph 47.2 mph N/A Snow Light Snow
10:10 PM 33.8 °F 18.6 °F 28.4 °F 81% 29.93 in 9.0 mi WNW 38.0 mph 47.2 mph N/A Snow Light Snow
10:25 PM 33.8 °F 19.0 °F 28.4 °F 81% 29.92 in 7.0 mi WNW 35.7 mph 52.9 mph N/A Snow Light Snow
10:49 PM 35.6 °F 21.5 °F 26.6 °F 70% 29.91 in 10.0 mi NW 35.7 mph 52.9 mph N/A   Mostly Cloudy
10:56 PM 35.6 °F 21.3 °F 26.6 °F 70% 29.90 in 10.0 mi NW 36.8 mph 48.3 mph N/A   Mostly Cloudy
10:58 PM 35.2 °F 20.3 °F 26.1 °F 69% 29.96 in 10.0 mi NW 40.3 mph 48.3 mph 0.00 in   Mostly Cloudy
11:01 PM 35.6 °F 19.7 °F 26.6 °F 70% 29.88 in 10.0 mi NW 48.3 mph 64.4 mph N/A Rain Light Rain
11:11 PM 35.6 °F 21.5 °F 24.8 °F 65% 29.90 in 10.0 mi NW 35.7 mph 64.4 mph N/A   Mostly Cloudy
11:58 PM 35.8 °F 22.3 °F 24.4 °F 63% 29.98 in 10.0 mi NNW 32.2 mph 42.6 mph 0.00 in   Overcast